Domov               UVHVVR             MKGP            O straneh              
ZDRAVSTVENO VARSTVO RASTLIN
  MREŽA AGROMET. POSTAJ
 ► PROGNOSTIČNA OBVESTILA
AGROMETEOROLOŠKI PODATKI -
ARSO
OBVLADOVANJE TVEGANJ ZARADI
NEUGODNIH VREMENSKIH RAZMER
  ► NARAVNE NESREČE
  ► SUŠA/MOČA
  ► NAMAKANJE
  ► ŽLED (gozdarstvo)
KARTOGRAFSKI PRIKAZI
SPLETNE POVEZAVE
PROJEKTI IN PUBLIKACIJE

AGROMETEOROLOŠKA MREŽA: VREMENSKE POSTAJE IN FENOLOŠKA OPAZOVANJA

Pregled podatkov za lokacijo Bizeljsko, meteorološka postaja 38541

Pregled senzorjev na lokaciji

ID Ime Zadnja
vrednost
Datum
zadnje
spremembe
Tip
senzorja
2027 Temperatura 2 m (°C) 1,37 °C 15.12.2017 20:00 50YA
2028 Relativna vlaga 2 m (% RH) 91,67 % RH 15.12.2017 20:00 50YA
2029 Omočenost lista (U) 5 U 15.12.2017 20:00 A730WET
2030 Padavine (mm) 1,6 mm 15.12.2017 20:00 Rain-O-Matic

Pregled podatkov zadnjih 24 ur

Zap.
št.
Datum in čas Bizeljsko
Omočenost
lista
Padavine Relativna
vlaga
2
m
Temperatura
2
m
0 15.12.2017 20:00 5 1,6 91,67 1,37
1 15.12.2017 19:30 7 1 91,62 1,64
2 15.12.2017 19:00 5 0,6 91,65 2,22
3 15.12.2017 18:30 10 0,4 90,72 2,81
4 15.12.2017 18:00 9 1 89,6 3,1
5 15.12.2017 17:30 10 0,6 89,13 3,47
6 15.12.2017 17:00 9 0,6 88,23 3,93
7 15.12.2017 16:30 10 1 86,15 4,76
8 15.12.2017 16:00 6 0 86,11 5,45
9 15.12.2017 15:30 9 0 83,25 6,89
10 15.12.2017 15:00 10 0 78,39 9,33
11 15.12.2017 14:30 10 0 79,29 9,4
12 15.12.2017 14:00 10 0 75,92 9,82
13 15.12.2017 13:30 10 0,2 74,38 9,77
14 15.12.2017 13:00 10 0,2 73,5 9,99
15 15.12.2017 12:30 10 0,2 75,92 10,48
16 15.12.2017 12:00 10 0 77,75 10,18
17 15.12.2017 11:30 10 0 80,17 9,67
18 15.12.2017 11:00 10 0 78,24 9,79
19 15.12.2017 10:30 10 0 76,56 9,72
20 15.12.2017 10:00 10 0 82,25 8,74
21 15.12.2017 09:30 10 0 82,91 8,45
22 15.12.2017 09:00 10 0 83,22 8,3
23 15.12.2017 08:30 10 0,2 86,2 7,94
24 15.12.2017 08:00 10 0,2 83,27 8,3
25 15.12.2017 07:30 10 0,4 78,41 8,67
26 15.12.2017 07:00 10 0 76,43 8,64
27 15.12.2017 06:30 10 0 75,92 8,79
28 15.12.2017 06:00 10 0 76,97 8,67
29 15.12.2017 05:30 10 0 78,1 8,5
30 15.12.2017 05:00 10 0 78,8 8,21
31 15.12.2017 04:30 10 0 81 7,69
32 15.12.2017 04:00 10 0 82,08 7,35
33 15.12.2017 03:30 10 0 82,93 7,08
34 15.12.2017 03:00 10 0 82,56 7,08
35 15.12.2017 02:30 10 0 81,78 7,11
36 15.12.2017 02:00 10 0 83,3 6,89
37 15.12.2017 01:30 10 0 89,82 6,03
38 15.12.2017 01:00 10 0 93,09 5,3
39 15.12.2017 00:30 10 0 92,33 5,32
40 15.12.2017 00:00 10 0 91,92 5,57
41 14.12.2017 23:30 10 0 91,04 5,54
42 14.12.2017 23:00 10 0 88,47 6,03
43 14.12.2017 22:30 10 0 87,23 6,08
44 14.12.2017 22:00 10 0 86,47 6,2
45 14.12.2017 21:30 10 0 87,81 5,81
46 14.12.2017 21:00 10 0 85,03 6,54
© 2011 Ministrstvo za kmetijstvo, gozdarstvo in prehrano. Vse pravice pridržane.